Time,TemperatureF,DewpointF,PressureIn,WindDirection,WindDirectionDegrees,WindSpeedMPH,WindSpeedGustMPH,Humidity,HourlyPrecipIn,Conditions,Clouds,dailyrainin,SoftwareType,DateUTC
2013-03-03 06:42:00,42.0,24.0,-100.00,NNE,15,4.0,-999.0,47,0.00,,,-99.99,,2013-03-03 13:42:00,
2013-03-03 06:52:00,40.0,23.0,-100.00,East,90,7.0,9.0,49,0.00,,,-99.99,,2013-03-03 13:52:00,
2013-03-03 07:02:00,43.0,24.0,-100.00,NNW,345,4.0,8.0,47,0.00,,,-99.99,,2013-03-03 14:02:00,
2013-03-03 07:11:00,45.0,25.0,-100.00,ENE,65,4.0,10.0,45,0.00,,,-99.99,,2013-03-03 14:11:00,
2013-03-03 07:21:00,45.0,25.0,-100.00,SSE,160,6.0,7.0,45,0.00,,,-99.99,,2013-03-03 14:21:00,
2013-03-03 07:32:00,45.0,25.0,-100.00,NE,45,6.0,7.0,45,0.00,,,-99.99,,2013-03-03 14:32:00,
2013-03-03 07:42:00,47.0,26.0,-100.00,ESE,110,4.0,6.0,44,0.00,,,-99.99,,2013-03-03 14:42:00,
2013-03-03 07:52:00,50.0,27.0,-100.00,West,280,6.0,7.0,41,0.00,,,-99.99,,2013-03-03 14:52:00,
2013-03-03 08:01:00,50.0,27.0,-100.00,SE,140,6.0,9.0,41,0.00,,,-99.99,,2013-03-03 15:01:00,
2013-03-03 08:11:00,50.0,27.0,-100.00,WNW,295,3.0,7.0,40,0.00,,,-99.99,,2013-03-03 15:11:00,
2013-03-03 08:22:00,49.0,26.0,-100.00,NW,325,6.0,9.0,41,0.00,,,-99.99,,2013-03-03 15:22:00,
2013-03-03 08:32:00,49.0,27.0,-100.00,ENE,70,6.0,7.0,41,0.00,,,-99.99,,2013-03-03 15:32:00,
2013-03-03 08:42:00,50.0,27.0,-100.00,SSE,155,2.0,4.0,40,0.00,,,-99.99,,2013-03-03 15:42:00,
2013-03-03 08:51:00,49.0,27.0,-100.00,ENE,65,4.0,6.0,42,0.00,,,-99.99,,2013-03-03 15:51:00,
2013-03-03 09:01:00,51.0,28.0,-100.00,SW,225,1.0,7.0,40,0.00,,,-99.99,,2013-03-03 16:01:00,
2013-03-03 09:12:00,52.0,28.0,-100.00,NW,310,6.0,9.0,40,0.00,,,-99.99,,2013-03-03 16:12:00,
2013-03-03 09:21:00,53.0,29.0,-100.00,NE,40,4.0,6.0,39,0.00,,,-99.99,,2013-03-03 16:21:00,
2013-03-03 09:31:00,54.0,29.0,-100.00,WNW,300,7.0,9.0,38,0.00,,,-99.99,,2013-03-03 16:31:00,
2013-03-03 09:42:00,55.0,29.0,-100.00,North,5,4.0,11.0,37,0.00,,,-99.99,,2013-03-03 16:42:00,
2013-03-03 09:52:00,55.0,29.0,-100.00,West,280,7.0,11.0,37,0.00,,,-99.99,,2013-03-03 16:52:00,
2013-03-03 10:01:00,56.0,30.0,-100.00,WSW,245,2.0,9.0,37,0.00,,,-99.99,,2013-03-03 17:01:00,
2013-03-03 10:11:00,56.0,31.0,-100.00,SW,235,6.0,11.0,37,0.00,,,-99.99,,2013-03-03 17:11:00,
2013-03-03 10:22:00,57.0,31.0,-100.00,SSW,210,7.0,9.0,36,0.00,,,-99.99,,2013-03-03 17:22:00,
2013-03-03 10:32:00,58.0,31.0,-100.00,WSW,250,7.0,10.0,34,0.00,,,-99.99,,2013-03-03 17:32:00,
2013-03-03 10:42:00,59.0,31.0,-100.00,WSW,255,5.0,10.0,34,0.00,,,-99.99,,2013-03-03 17:42:00,
2013-03-03 10:52:00,59.0,31.0,-100.00,SW,220,4.0,7.0,34,0.00,,,-99.99,,2013-03-03 17:52:00,
2013-03-03 11:01:00,60.0,31.0,-100.00,WSW,250,6.0,7.0,34,0.00,,,-99.99,,2013-03-03 18:01:00,
2013-03-03 11:11:00,60.0,31.0,-100.00,WSW,250,6.0,7.0,34,0.00,,,-99.99,,2013-03-03 18:11:00,
2013-03-03 11:21:00,60.0,31.0,-100.00,WNW,285,4.0,6.0,33,0.00,,,-99.99,,2013-03-03 18:21:00,
2013-03-03 11:31:00,59.0,31.0,-100.00,SW,235,6.0,10.0,33,0.00,,,-99.99,,2013-03-03 18:31:00,
2013-03-03 11:42:00,59.0,30.0,-100.00,South,185,2.0,7.0,33,0.00,,,-99.99,,2013-03-03 18:42:00,
2013-03-03 11:52:00,59.0,29.0,-100.00,WNW,300,8.0,29.0,32,0.00,,,-99.99,,2013-03-03 18:52:00,
2013-03-03 12:02:00,59.0,29.0,-100.00,ENE,75,7.0,23.0,31,0.00,,,-99.99,,2013-03-03 19:02:00,
2013-03-03 12:11:00,60.0,29.0,-100.00,NE,50,15.0,24.0,30,0.00,,,-99.99,,2013-03-03 19:11:00,
2013-03-03 12:21:00,60.0,29.0,-100.00,NNW,335,5.0,17.0,30,0.00,,,-99.99,,2013-03-03 19:21:00,
2013-03-03 12:32:00,59.0,28.0,-100.00,NNW,335,11.0,18.0,30,0.00,,,-99.99,,2013-03-03 19:32:00,
2013-03-03 12:42:00,59.0,28.0,-100.00,ENE,75,19.0,32.0,30,0.00,,,-99.99,,2013-03-03 19:42:00,
2013-03-03 12:51:00,59.0,28.0,-100.00,ENE,65,7.0,25.0,30,0.00,,,-99.99,,2013-03-03 19:51:00,
2013-03-03 13:01:00,60.0,28.0,-100.00,NE,45,11.0,24.0,30,0.00,,,-99.99,,2013-03-03 20:01:00,
2013-03-03 13:11:00,59.0,28.0,-100.00,NNE,30,20.0,30.0,30,0.00,,,-99.99,,2013-03-03 20:11:00,
2013-03-03 13:21:00,59.0,28.0,-100.00,ESE,115,17.0,30.0,30,0.00,,,-99.99,,2013-03-03 20:21:00,
2013-03-03 13:32:00,60.0,28.0,-100.00,East,80,9.0,29.0,30,0.00,,,-99.99,,2013-03-03 20:32:00,
2013-03-03 13:42:00,60.0,29.0,-100.00,East,85,9.0,24.0,30,0.00,,,-99.99,,2013-03-03 20:42:00,
2013-03-03 13:52:00,60.0,29.0,-100.00,East,90,11.0,29.0,30,0.00,,,-99.99,,2013-03-03 20:52:00,
2013-03-03 14:01:00,61.0,29.0,-100.00,NNE,25,6.0,24.0,29,0.00,,,-99.99,,2013-03-03 21:01:00,
2013-03-03 14:11:00,62.0,30.0,-100.00,NE,40,8.0,17.0,29,0.00,,,-99.99,,2013-03-03 21:11:00,
2013-03-03 14:21:00,61.0,29.0,-100.00,East,95,12.0,27.0,29,0.00,,,-99.99,,2013-03-03 21:21:00,
2013-03-03 14:32:00,61.0,28.0,-100.00,NE,55,17.0,28.0,29,0.00,,,-99.99,,2013-03-03 21:32:00,
2013-03-03 14:41:00,61.0,29.0,-100.00,ENE,60,17.0,30.0,29,0.00,,,-99.99,,2013-03-03 21:41:00,
2013-03-03 14:52:00,60.0,29.0,-100.00,East,85,11.0,29.0,29,0.00,,,-99.99,,2013-03-03 21:52:00,
2013-03-03 15:01:00,60.0,29.0,-100.00,NE,55,17.0,30.0,29,0.00,,,-99.99,,2013-03-03 22:01:00,
2013-03-03 15:11:00,60.0,28.0,-100.00,ENE,75,12.0,30.0,29,0.00,,,-99.99,,2013-03-03 22:11:00,
2013-03-03 15:22:00,61.0,29.0,-100.00,ENE,70,12.0,21.0,29,0.00,,,-99.99,,2013-03-03 22:22:00,
2013-03-03 15:32:00,61.0,29.0,-100.00,ENE,70,12.0,21.0,29,0.00,,,-99.99,,2013-03-03 22:32:00,
2013-03-03 15:42:00,61.0,30.0,-100.00,NE,55,8.0,16.0,30,0.00,,,-99.99,,2013-03-03 22:42:00,
2013-03-03 15:52:00,61.0,29.0,-100.00,ESE,115,6.0,18.0,30,0.00,,,-99.99,,2013-03-03 22:52:00,
2013-03-03 16:01:00,61.0,29.0,-100.00,East,85,4.0,17.0,30,0.00,,,-99.99,,2013-03-03 23:01:00,
2013-03-03 16:11:00,60.0,29.0,-100.00,ENE,65,4.0,18.0,30,0.00,,,-99.99,,2013-03-03 23:11:00,
2013-03-03 16:21:00,59.0,28.0,-100.00,NNW,335,4.0,14.0,30,0.00,,,-99.99,,2013-03-03 23:21:00,
2013-03-03 16:31:00,58.0,28.0,-100.00,NE,55,9.0,16.0,30,0.00,,,-99.99,,2013-03-03 23:31:00,
2013-03-03 16:41:00,58.0,28.0,-100.00,NE,50,9.0,11.0,31,0.00,,,-99.99,,2013-03-03 23:41:00,
2013-03-03 16:52:00,58.0,28.0,-100.00,ENE,60,7.0,20.0,31,0.00,,,-99.99,,2013-03-03 23:52:00,
2013-03-03 17:01:00,57.0,28.0,-100.00,NNE,30,9.0,21.0,32,0.00,,,-99.99,,2013-03-04 00:01:00,
2013-03-03 17:11:00,56.0,28.0,-100.00,NNE,30,3.0,17.0,32,0.00,,,-99.99,,2013-03-04 00:11:00,
2013-03-03 17:21:00,56.0,28.0,-100.00,ESE,105,6.0,15.0,33,0.00,,,-99.99,,2013-03-04 00:21:00,
2013-03-03 17:32:00,55.0,27.0,-100.00,ENE,70,4.0,15.0,34,0.00,,,-99.99,,2013-03-04 00:32:00,
2013-03-03 17:42:00,54.0,27.0,-100.00,SE,135,9.0,14.0,34,0.00,,,-99.99,,2013-03-04 00:42:00,
2013-03-03 17:52:00,54.0,28.0,-100.00,SE,135,7.0,22.0,35,0.00,,,-99.99,,2013-03-04 00:52:00,
2013-03-03 18:01:00,54.0,28.0,-100.00,SE,145,7.0,27.0,35,0.00,,,-99.99,,2013-03-04 01:01:00,
2013-03-03 18:10:00,54.0,28.0,-100.00,SSE,150,9.0,18.0,36,0.00,,,-99.99,,2013-03-04 01:10:00,
2013-03-03 18:11:00,54.0,28.0,-100.00,SE,135,10.0,16.0,36,0.00,,,-99.99,,2013-03-04 01:11:00,
2013-03-03 18:21:00,54.0,28.0,-100.00,SSE,150,9.0,18.0,36,0.00,,,-99.99,,2013-03-04 01:21:00,
2013-03-03 18:31:00,54.0,28.0,-100.00,SSE,150,9.0,18.0,36,0.00,,,-99.99,,2013-03-04 01:31:00,
2013-03-03 18:42:00,54.0,28.0,-100.00,SSE,150,9.0,18.0,36,0.00,,,-99.99,,2013-03-04 01:42:00,
2013-03-03 18:51:00,54.0,28.0,-100.00,SSE,150,9.0,18.0,36,0.00,,,-99.99,,2013-03-04 01:51:00,
2013-03-03 19:01:00,54.0,28.0,-100.00,SSE,150,9.0,18.0,36,0.00,,,-99.99,,2013-03-04 02:01:00,